Showing default

SZ-21 MODULE, 66515

Orbit data source: Space-Track

SZ-21 MODULE, 66515 is a payload satellite owned by ZZHGB (CN) in LEO that was launched on Fri, 31 Oct 2025 UTC launched from the Jiuquan Satellite Launch Center, China (JSC). Payload-class satellites include a variety of spacecraft equipped with specific instruments for various scientific and technological missions. These include communications satellites like Starlink; space stations such as the ISS; scientific satellites like the Hubble; Earth observation satellites from companies like Planet Labs, Umbra, and HawkEye 360; GPS; miniature CubeSats for education and research; and military/defense satellites.

Loading next visibility...
Identifier
66515, 2025-246C
Orbit
LEO
Country
Flag of CNCN / PRC
Related business
Manufacturer
CAST
Mission
Civil Spaceship
Bus & Motor
SHENZHOU OM, Unknown motor
Mass
~1,842 kg wet, ~1,500 kg dry
Launch date (UTC)
2025-10-31 (4 months ago)
Launch vehicle
Unknown
Launch site
Jiuquan Satellite Launch Center, China (JSC)
Object type
Payload
Rocket body
Debris
Shape & HBR
Cyl + 2 Pan, 14.5 m
Radar Cross Section
9.277 m²

Expand to show TLE details & history
Last TLE update: 14 hours ago

TLE from 14 hours ago
0 SZ-21 MODULE
1 66515U 25246C   26061.55898934  .00039531  00000-0  34908-3 0  9996
2 66515  41.4734 247.2373 0001469 286.7563  73.3117 15.67907744 16956
Epoch: 2026-03-02T13:24Z
TLE epoch observation values (Epoch: 2026-03-02T13:24:56.678Z)
Latitude
-0.00005°
Longitude
-114.34959°
Altitude
364.204 km
Speed
7.693 km/s
True Right ascension
16h 28m 56s
True Declination
0° 00' 00"
Sunlit
Object was in daylight at epoch
Visualization orbit readout
Latitude
Unknown
Longitude
Unknown
Altitude
Unknown
Speed
Unknown
Apparent Right ascension
Unknown
Apparent Declination
Unknown
Sunlit
N/A
Visualization observer readout
Local Sidereal Time
07:10:42
Azimuth
Unknown
Elevation
Unknown
Doppler factor
Unknown
Orbital elements
Apogee altitude
368.119 km
Perigee altitude
366.137 km
Semi-major axis
6,745.265 km
Eccentricity
0.00015
Inclination
41.4734°
RAAN
247.2373°
Arg. of periapsis
286.7563°
True anomaly
73.32783°
Mean anomaly
73.3117°
Eccentric anomaly
73.31976°
Mean motion
3.91782 °/min
Orbital period
91.89 mins
BSTAR
0.00034908
Loading maneuver chart data...
Computing Atmospheric mass density...
Loading historical data...
Loading historical data...
Loading historical data...
Loading historical data...
Loading historical data...
Loading historical data...
Loading historical data...
Other satellites on launch #246 in the year 2025 (2025-10-31 UTC)

Documentation

Showing up to 5 results
|